Notices

What's New in latest Release from April 7th, 2021:

- Updated Glossary, including Speed of Maximum Gust, and Total Hourly Precipitation

- Updated national and regional climate services offices contacts and prices information

- Addition of station inventory lists for 1981-2010, 1971-2000, and 1961-1990 Normals.

If you haven't already, please take our survey and provide feedback about our website: https://eccc.sondage-survey.ca/f/LanguageSelection.aspx?s=442ca660-fcf1-47c0-95a9-59707d6fd709

Hourly Data Report for December 07, 2016

CARBERRY CS
MANITOBA

49°54'20.900" N
99°21'26.800" W
383.50 m
5010547
71170
WZE

Download Data

Hourly Data (December 2016)
Hourly Data Report for December 7, 2016
TIME
LST
Temp Definition
°C
Dew Point Definition
°C
Rel Hum Definition
%
Precip. Amount Definition
mm

Wind Dir Definition
10's deg

Wind Spd Definition
km/h
Visibility Definition
km
Stn Press Definition
kPa
Hmdx Definition


Wind Chill Definition


Weather Definition


00:00 -9.7 -12.5 80 0.0 30 34   96.38   -20 LegendNANA
01:00 -9.6 -12.6 79 0.0 30 37   96.42   -20 LegendNANA
02:00 -9.6 -12.5 79 0.0 30 38   96.50   -20 LegendNANA
03:00 -9.9 -12.6 81 0.0 29 33   96.55   -20 LegendNANA
04:00 -10.5 -12.6 84 0.0 29 35   96.58   -21 LegendNANA
05:00 -10.4 -12.4 86 0.2 30 39   96.65   -21 LegendNANA
06:00 -10.6 -12.6 86 0.0 30 39   96.69   -21 LegendNANA
07:00 -10.6 -12.4 86 0.2 29 39   96.77   -21 LegendNANA
08:00 -10.5 -12.1 88 0.0 30 39   96.84   -21 LegendNANA
09:00 -10.2 -12.0 87 0.2 30 37   96.93   -21 LegendNANA
10:00 -9.6 -11.5 86 0.0 30 40   97.06   -20 LegendNANA
11:00 -9.7 -11.7 86 0.2 30 38   97.14   -20 LegendNANA
12:00 -9.2 -11.1 86 0.2 31 37   97.18   -19 LegendNANA
13:00 -8.9 -11.0 85 0.2 31 36   97.26   -19 LegendNANA
14:00 -8.6 -10.9 83 0.0 31 35   97.33   -18 LegendNANA
15:00 -8.5 -10.6 85 0.2 31 30   97.43   -18 LegendNANA
16:00 -8.0 -10.6 82 0.2 32 23   97.56   -16 LegendNANA
17:00 -7.9 -11.7 74 0.0 33 26   97.69   -16 LegendNANA
18:00 -8.9 -12.5 75 0.0 32 17   97.80   -16 LegendNANA
19:00 -9.1 -12.6 75 0.0 31 18   97.89   -16 LegendNANA
20:00 -9.4 -12.3 79 0.0 31 20   97.96   -17 LegendNANA
21:00 -9.9 -12.8 80 0.0 33 17   98.06   -17 LegendNANA
22:00 -9.7 -12.8 78 0.0 32 21   98.12   -18 LegendNANA
23:00 -10.3 -12.6 83 0.0 32 25   98.20   -19 LegendNANA

Notes on Data Quality.

Legend

  • E = Estimated
  • M = Missing
  • NA = Not Available*
  • [empty] = Indicates an unobserved value
Date modified: